Location: Austin
(30.3000°N, 97.7500°W)
Time: 05:26:42
(UTC-06:00)

NOSS 3-2 (A) - Pass Details

Date: 03 March 2026
Orbit: 669 x 1534 km, 63.4° (Epoch: 2 January)

Event Time Altitude Azimuth Distance (km) Brightness Sun altitude
Rises 19:27:45 0° 181° (S) 2,994 6.1 -13.0°
Reaches altitude 10° 19:30:16 10° 168° (SSE) 2,093 5.1 -13.5°
Maximum altitude 19:34:12 27° 110° (ESE) 1,321 3.7 -14.3°
Enters shadow 19:35:56 22° 77° (ENE) 1,540 4.0 -14.7°
